www.pogodaiklimat.ru

Погода и климат >> Архив погоды >> Хорватия >> Крапина


ПОГОДА в Крапине

  • Прогноз погоды в Крапине
  • Монитор погоды в Крапине

АРХИВ ПОГОДЫ в Крапине

Время (UTC), дата Ветер
(напр.,м/с)
 
Видим.   Явления Облачность Т
(С)
Тd
(С)
f
(%)
Тe
(С)
Тes
(С)
Комфортность P
(гПа)
Po
(гПа)
Тmin
(С)
Tmax
(С)
R
(мм)
R24
(мм)
S
(см)
13 15.08 ЮЗ 2 35 км 3/3 1000 м
[Cu hum Ci fib]
+24.4 +10.3 41 +25 +34 комфорт 1015.0 991.8
14 15.08 Ю 1 н/о н/о +25.0 +9.0 36 +26 +26 жарко 1015.0 991.7
15 15.08 ЮЗ 1 н/о н/о +24.6 +7.3 33 +25 +25 комфорт 1014.7 991.4
16 15.08 ЮЗ 1 н/о н/о +24.6 +7.3 33 +25 +25 комфорт 1014.6 991.3
17 15.08 штиль 0 н/о н/о +24.2 +10.5 42 +25 +25 комфорт 1014.4 991.1
18 15.08 СВ 1 35 км 1/0
[Ac cuf]
+20.4 +13.8 66 +24 +24 комфорт 1014.4 990.9 +25.1
19 15.08 СВ 1 30 км 1/0
[Ac trans]
+17.4 +13.3 77 +18 +18 1015.3 991.5
20 15.08 штиль 0 н/о н/о +15.8 +12.0 78 +16 +16 1016.4 992.3
21 15.08 штиль 0 н/о н/о +14.9 +11.9 82 +15 +15 1016.7 992.6
00 16.08 штиль 0 н/о н/о +13.3 +11.9 91 +13 +13 1017.1 992.8
03 16.08 штиль 0 30 км 10/10 1000 м
[Sc]
+14.8 +13.6 93 +14 +14 1016.6 992.6
04 16.08 штиль 0 25 км слаб. дождь 10/10 1000 м
[Sc]
+14.9 +13.7 93 +15 +15 1016.7 992.7
05 16.08 штиль 0 10 км слаб. дождь 10/10 600 м
[Sc]
+14.9 +13.9 94 +15 +15 1017.4 993.4
06 16.08 З 1 7000 м дождь 10/3 600 м
[Frnb As op]
+15.2 +14.5 96 +16 +16 1017.9 993.9 +13.2 4
07 16.08 З 1 7000 м дождь 10/3 600 м
[Frnb As op]
+15.7 +15.0 96 +16 +17 1018.5 994.5
08 16.08 штиль 0 10 км слаб. дождь 10/4 600 м
[Frnb As op]
+16.8 +15.7 93 +17 +18 1019.0 995.1
09 16.08 штиль 0 10 км слаб. дождь 10/4 600 м
[Frnb As op]
+17.5 +16.0 91 +17 +19 1019.3 995.5
10 16.08 ЮЗ 1 10 км слаб. дождь 9/9 600 м
[Sc]
+18.4 +16.2 87 +20 +22 1018.9 995.2
11 16.08 Ю 1 20 км в посл. час дождь 8/6 600 м
[Cu Sc Ac trans]
+20.5 +16.1 76 +25 +30 комфорт 1018.6 995.0
12 16.08 ЮЗ 1 25 км {дождь} 4/3 600 м
[Cu Sc Ac trans]
+21.9 +15.8 68 +26 +37 душно 1018.2 994.7 5
13 16.08 СЗ 1 25 км 4/3 600 м
[Cu Sc Ac trans]
+22.8 +14.8 61 +27 +36 душно 1017.5 994.1
14 16.08 В 1 н/о н/о +24.6 +14.2 52 +27 +27 жарко 1017.1 993.7
15 16.08 З 2 н/о н/о +21.9 +15.1 65 +25 +25 комфорт 1017.4 993.8
16 16.08 З 1 н/о н/о +22.7 +15.1 62 +27 +27 душно 1017.2 993.7
17 16.08 ЮЗ 1 н/о н/о +22.8 +15.2 62 +27 +27 душно 1017.0 993.5
18 16.08 штиль 0 30 км 1/0
[Ac trans]
+20.0 +16.4 80 +22 +22 комфорт 1017.0 993.4 +24.1 5
19 16.08 СВ 1 30 км 1/0
[Ci fib]
+17.4 +15.6 89 +18 +18 1018.0 994.2
20 16.08 штиль 0 30 км ясно +16.4 +15.1 92 +16 +16 1018.5 994.6
21 16.08 штиль 0 н/о н/о +15.0 +13.6 91 +15 +15 1019.2 995.0
00 17.08 штиль 0 н/о н/о +13.5 +12.6 94 +13 +13 1019.1 994.8
03 17.08 штиль 0 400 м туман ясно +12.6 +12.1 97 +12 +12 1018.1 993.9
04 17.08 штиль 0 200 м туман ясно +12.5 +12.1 97 +12 +12 1018.1 993.9
05 17.08 штиль 0 200 м туман ?/? +12.7 +12.3 97 +12 +12 1018.3 994.1
06 17.08 штиль 0 200 м туман ?/? +13.2 +13.0 99 +13 +13 1018.5 994.3 +12.2
07 17.08 штиль 0 400 м туман ?/? +14.6 +14.2 97 +14 +14 1018.9 994.8
08 17.08 Ю 1 10 км в посл. час туман 9/1 600 м
[St As trans]
+17.4 +15.1 86 +18 +23 1018.4 994.6
09 17.08 ЮВ 1 20 км {туман} 8/1 1000 м
[Cu hum Ac trans Cs]
+20.0 +15.7 76 +24 +32 комфорт 1017.9 994.3
10 17.08 ЮЗ 2 25 км 6/1 1000 м
[Cu hum Ac trans Ci fib]
+22.0 +15.8 68 +26 +35 душно 1017.5 994.1
11 17.08 ЮВ 1 30 км 5/1 1000 м
[Cu hum Ac trans Ci fib]
+23.6 +15.5 60 +27 +39 жарко 1016.9 993.6
12 17.08 Ю 1 30 км {туман} 3/1 1000 м
[Cu hum Ci sp]
+25.0 +16.1 58 +28 +43 жарко 1016.2 993.0
13 17.08 Ю 2 30 км 1/0
[Ci sp]
+26.0 +15.2 51 +29 +41 душно 1015.5 992.4
14 17.08 ЮЗ 2 н/о н/о +27.0 +14.5 46 +29 +29 жарко 1015.4 992.2
15 17.08 Ю 2 н/о н/о +26.7 +14.5 47 +29 +29 жарко 1015.2 992.0
16 17.08 Ю 1 н/о н/о +26.1 +14.3 48 +28 +28 жарко 1014.8 991.6
17 17.08 Ю 1 н/о н/о +24.8 +15.8 57 +28 +28 жарко 1015.0 991.7
18 17.08 СВ 1 30 км 8/0
[Ac trans Ci fib]
+22.4 +17.1 72 +27 +27 душно 1014.9 991.6 +27.1
19 17.08 СВ 1 30 км 5/0
[Ci fib]
+20.0 +16.6 81 +24 +24 комфорт 1014.9 991.4
20 17.08 С 1 30 км 4/0
[Ci fib]
+18.8 +16.0 84 +21 +21 комфорт 1015.4 991.8
21 17.08 СВ 1 н/о н/о +17.3 +15.0 86 +18 +18 1015.9 992.0
00 18.08 штиль 0 н/о н/о +16.2 +15.1 93 +16 +16 1016.0 992.0
03 18.08 штиль 0 30 км 6/0
[Ac As Ci fib]
+15.8 +15.1 96 +16 +16 1015.3 991.4
04 18.08 штиль 0 30 км 8/0
[Ac As]
+15.2 +14.7 97 +15 +15 1015.3 991.4
05 18.08 штиль 0 30 км 8/0
[Ac As]
+15.7 +15.2 97 +15 +16 1015.5 991.6
06 18.08 штиль 0 30 км 3/0
[Ac trans Ci fib]
+17.4 +15.1 86 +17 +20 1015.4 991.7 +15.2
07 18.08 В 1 30 км 1/0
[Ac trans Ci fib]
+20.2 +15.6 75 +24 +30 комфорт 1015.3 991.8
08 18.08 штиль 0 30 км 1/0
[Ac trans Ci fib]
+22.0 +15.3 66 +26 +37 душно 1015.4 992.0
09 18.08 В 1 30 км 1/0
[Ac trans Ci fib]
+24.6 +16.3 60 +28 +42 душно 1015.1 991.9
10 18.08 ЮВ 1 30 км 1/0
[Ci fib]
+26.1 +16.5 55 +30 +46 душно 1014.6 991.6
11 18.08 ЮЗ 2 30 км ясно +26.8 +17.0 55 +31 +46 душно 1014.4 991.4
12 18.08 ЮЗ 2 30 км ясно +27.9 +17.6 54 +32 +47 душно 1014.1 991.2
13 18.08 ЮЗ 2 30 км ясно +29.2 +18.5 53 +34 +46 очень
душно
1013.8 991.0
14 18.08 ЮЗ 2 н/о н/о +30.0 +17.2 46 +34 +34 очень
душно
1014.0 991.1
15 18.08 Ю 2 н/о н/о +30.5 +18.3 48 +35 +35 очень
душно
1013.8 990.9
16 18.08 Ю 1 н/о н/о +29.3 +19.1 54 +35 +35 очень
душно
1013.6 990.7
17 18.08 Ю 1 н/о н/о +28.4 +19.4 58 +34 +34 очень
душно
1013.5 990.5
18 18.08 штиль 0 30 км 1/0
[Ci fib]
+25.7 +20.3 72 +32 +32 очень
душно
1013.2 990.2 +30.0
19 18.08 СВ 1 30 км 3/0
[Ci fib]
+22.8 +20.1 85 +29 +29 очень
душно
1013.7 990.5
20 18.08 СВ 1 30 км 4/0
[Ac trans Ci fib]
+21.4 +19.6 89 +26 +26 душно 1014.1 990.7
21 18.08 СВ 1 н/о н/о +20.5 +18.5 88 +25 +25 комфорт 1014.6 991.0
00 19.08 В 1 н/о н/о +17.6 +16.5 93 +19 +19 1015.2 991.3
03 19.08 штиль 0 30 км 1/0
[Ac trans Ci fib]
+16.7 +16.2 97 +17 +17 1015.0 991.2
04 19.08 В 1 30 км 1/0
[Ac trans Ci fib]
+16.0 +15.3 96 +17 +17 1015.2 991.3
05 19.08 С 1 30 км 1/0
[Ac trans]
+16.8 +16.0 95 +18 +18 1015.6 991.8
06 19.08 штиль 0 30 км ясно +21.2 +17.5 79 +25 +28 комфорт 1015.6 992.2 +16.0
07 19.08 ЮЗ 1 30 км ясно +23.0 +16.6 67 +28 +34 душно 1015.6 992.3
08 19.08 штиль 0 30 км ясно +24.6 +18.0 67 +29 +41 душно 1015.8 992.6
09 19.08 Ю 1 30 км 1/0
[Ci fib]
+26.5 +17.0 56 +30 +44 душно 1015.6 992.6
10 19.08 З 1 30 км 3/0
[Ci fib]
+27.5 +17.8 55 +32 +48 очень
душно
1015.8 992.9
11 19.08 ЮЗ 1 30 км 1/1 1000 м
[Cu hum Ci fib]
+28.5 +18.5 55 +34 +50 очень
душно
1015.8 992.9
12 19.08 Ю 1 30 км 3/1 1000 м
[Cu hum Ci fib]
+29.9 +18.8 51 +35 +49 очень
душно
1015.7 992.9
13 19.08 Ю 1 30 км 3/3 1000 м
[Cu hum Ci fib]
+30.4 +17.7 47 +35 +44 очень
душно
1015.7 993.0
14 19.08 СВ 2 н/о н/о +31.1 +18.5 47 +36 +36 очень
душно
1015.8 992.9
15 19.08 В 1 н/о н/о +30.9 +18.7 48 +36 +36 очень
душно
1015.6 992.7
16 19.08 В 1 н/о н/о +30.3 +18.5 49 +35 +35 очень
душно
1015.4 992.5
17 19.08 СВ 1 н/о н/о +29.0 +19.4 56 +35 +35 очень
душно
1015.5 992.5
18 19.08 штиль 0 30 км 5/0
[Ci sp]
+25.6 +21.1 76 +32 +32 очень
душно
1015.4 992.4 +31.0
19 19.08 СВ 1 30 км 3/0
[Ci sp]
+23.8 +20.1 80 +29 +29 душно 1016.3 993.1
20 19.08 С 1 30 км 1/0
[Ac trans Ci fib]
+22.2 +19.4 84 +28 +28 душно 1017.0 993.6
21 19.08 штиль 0 н/о н/о +21.4 +18.7 85 +26 +26 душно 1017.7 994.1
00 20.08 штиль 0 н/о н/о +20.2 +18.2 88 +23 +23 комфорт 1018.0 994.3
03 20.08 штиль 0 30 км ясно +18.6 +17.5 93 +20 +20 1018.2 994.5
04 20.08 штиль 0 30 км 1/0
[Ci fib]
+18.8 +17.7 93 +20 +20 1018.8 995.1
05 20.08 штиль 0 30 км ясно +19.4 +18.0 92 +21 +22 комфорт 1018.9 995.3
06 20.08 штиль 0 30 км ясно +20.9 +18.3 85 +25 +28 комфорт 1019.0 995.5 +18.5
07 20.08 З 1 30 км 1/0
[Ci fib]
+23.8 +17.9 70 +28 +34 душно 1018.8 995.5
08 20.08 СВ 2 30 км 1/0
[Ci fib]
+26.2 +18.0 61 +31 +39 очень
душно
1018.8 995.7
09 20.08 В 2 30 км ясно +27.3 +18.4 58 +32 +44 очень
душно
1018.9 995.9
10 20.08 СВ 1 30 км ясно +28.0 +18.8 57 +33 +50 очень
душно
1018.8 995.8
11 20.08 СЗ 1 30 км 1/1 1000 м
[Cu hum]
+28.6 +19.3 57 +34 +50 очень
душно
1018.4 995.5
12 20.08 штиль 0 30 км 1/1 1000 м
[Cu hum]
+29.8 +19.4 54 +36 +53 опасность
солнечного
удара
1017.9 995.1
13 20.08 ЮЗ 1 30 км 1/1 1000 м
[Cu hum]
+30.2 +20.0 54 +36 +49 очень
душно
1017.5 994.7
14 20.08 штиль 0 н/о н/о +32.0 +20.7 51 +39 +39 очень
душно
1017.4 994.6
15 20.08 В 1 н/о н/о +31.5 +20.8 53 +39 +39 очень
душно
1017.2 994.3
16 20.08 ЮВ 1 н/о н/о +30.8 +20.2 53 +37 +37 очень
душно
1016.8 993.9
17 20.08 В 1 н/о н/о +29.3 +20.8 60 +36 +36 очень
душно
1016.7 993.7
18 20.08 СВ 1 30 км ясно +26.0 +21.6 77 +33 +33 очень
душно
1016.8 993.8 +31.2
19 20.08 СВ 1 30 км ясно +24.4 +20.6 79 +30 +30 очень
душно
1017.3 994.1
20 20.08 штиль 0 30 км ясно +23.0 +20.1 84 +30 +30 очень
душно
1017.5 994.2
21 20.08 штиль 0 н/о н/о +21.7 +19.3 86 +27 +27 душно 1017.9 994.3
00 21.08 штиль 0 н/о н/о +20.0 +18.7 92 +23 +23 комфорт 1017.7 993.9
03 21.08 С 1 25 км 4/0
[Ac trans Ci fib]
+19.4 +18.6 95 +23 +23 комфорт 1017.6 994.0
04 21.08 В 1 25 км 3/0
[Ac cast]
+19.3 +18.7 96 +23 +23 комфорт 1018.3 994.7
05 21.08 СВ 4 30 км 3/1 1000 м
[Cu hum Ac cast]
+21.9 +18.7 82 +27 +27 душно 1019.6 996.1
06 21.08 С 3 30 км 6/3 1000 м
[Cu Sc Ac cast]
+22.2 +17.1 73 +27 +28 душно 1020.5 997.0 +19.1
07 21.08 В 3 30 км 3/3 1000 м
[Cu Sc]
+21.9 +15.1 65 +25 +28 комфорт 1021.6 998.1
08 21.08 В 3 30 км 5/3 1000 м
[Cu Sc Ac cast]
+22.0 +14.7 63 +25 +29 комфорт 1022.4 998.8
09 21.08 СВ 4 30 км 6/5 1000 м
[Cu Sc Ac cast]
+22.0 +14.9 64 +25 +29 комфорт 1023.1 999.5
10 21.08 СВ 3 30 км 8/3 1000 м
[Cu Sc Ac cast]
+22.6 +14.3 59 +26 +30 жарко 1023.3 999.8
11 21.08 СВ 3 30 км 8/3 1000 м
[Cu Sc Ac cast]
+23.5 +15.2 60 +26 +31 жарко 1023.1 999.7
12 21.08 СВ 3 30 км 9/5 1000 м
[Cu Sc Ac As]
+24.1 +14.7 56 +27 +29 жарко 1023.0 999.6
13 21.08 СВ 3 30 км 8/4 1000 м
[Cu Sc Ac As Ci fib]
+24.1 +14.8 56 +27 +31 жарко 1023.0 999.6
14 21.08 СВ 4 н/о н/о +24.3 +13.0 49 +26 +26 жарко 1023.6 1000.1
15 21.08 СВ 2 н/о н/о +24.1 +13.7 52 +26 +26 жарко 1023.7 1000.1
16 21.08 СВ 3 н/о н/о +23.2 +13.2 53 +26 +26 жарко 1023.9 1000.3
17 21.08 СВ 2 н/о н/о +22.1 +13.5 58 +25 +25 комфорт 1024.1 1000.4
18 21.08 СВ 2 30 км 6/1 1500 м
[Sc Ac cast Ci fib]
+20.1 +13.0 64 +23 +23 комфорт 1024.1 1000.3 +24.8
19 21.08 СВ 3 30 км 8/3 1500 м
[Sc Ac As Ci fib]
+19.2 +12.7 66 +21 +21 комфорт 1024.7 1000.9
20 21.08 СВ 3 30 км 6/0
[Ac As]
+18.9 +12.6 67 +20 +20 1024.8 1000.9
21 21.08 В 2 н/о н/о +18.8 +11.9 64 +20 +20 1025.5 1001.5
00 22.08 В 3 н/о н/о +18.5 +11.4 63 +19 +19 1025.2 1001.2
03 22.08 В 1 30 км 9/0
[Ac trans]
+17.6 +12.2 71 +19 +19 1024.8 1000.8
04 22.08 штиль 0 30 км 9/9 1500 м
[Sc]
+17.4 +12.9 75 +17 +17 1025.0 1001.0
05 22.08 штиль 0 30 км 9/9 1500 м
[Sc]
+17.5 +13.4 77 +17 +18 1025.0 1001.0
06 22.08 В 3 30 км 9/8 1500 м
[Sc Ac trans]
+18.3 +12.4 68 +19 +19 1024.7 1000.8 +17.4
07 22.08 СВ 2 30 км 9/9 1500 м
[Sc]
+18.8 +13.0 69 +20 +21 1024.8 1000.9
08 22.08 СЗ 1 30 км 9/9 1500 м
[Sc Ac trans]
+20.4 +13.2 63 +24 +25 комфорт 1024.7 1001.0
09 22.08 СВ 2 30 км 9/9 1500 м
[Sc]
+21.8 +13.7 60 +25 +26 комфорт 1024.5 1000.9
10 22.08 СВ 2 30 км 9/6 1000 м
[Cu Sc Ac trans Ci sp]
+22.3 +14.3 61 +26 +29 жарко 1024.2 1000.6
11 22.08 В 2 25 км 9/9 1000 м
[Cu Sc]
+22.9 +14.7 60 +27 +28 душно 1023.9 1000.4

 

Местоположение метеостанции Крапина (Хорватия): широта 46.13 долгота 15.88 высота над уровнем моря 203 м.

В архиве по умолчанию представлена погода в Крапине за последнюю неделю. Архивные данные за месяц целиком и за предыдущие месяцы, начиная с января 2011 года, Вы можете получить, выбрав интересующий диапазон дат из раскрывающегося списка и нажав кнопку "Ввод!".


*Определитесь, кто Вы:
робот инопланетянин человек

Внимание! Время в таблицах - всемирное. Для получения местного времени необходимо прибавить поправку, которая равна 1 ч.

Смотрите также архив погоды в соседних городах и на ближайших метеорологических станциях:

Погода в Пунтиярке (Хорватия) (24 км)
Погода в Загреб-Градеце (Хорватия) (35 км)
Погода в Загребе (Хорватия) (36 км)
Погода в Церки-об-Крки (Словения) (38 км)
Погода в Мариборе (Словения) (42 км)
Погода в Вараздине (Хорватия) (43 км)
Погода на Лиске (Словения) (47 км)
Погода в Загреб аэропорту (Хорватия) (47 км)
Погода в Целе (Словения) (50 км)
Погода в Крижевцах (Хорватия) (53 км)

Пояснения к столбцам:

Ветер - указаны скорость ветра в м/с - средняя за 10 мин, порывы в срок и между сроками (в фигурных скобках) и направление, откуда дует ветер: С - северный, СВ - северо-восточный, В - восточный, ЮВ - юго-восточный, Ю - южный, ЮЗ - юго-западный, З - западный, СЗ - северо-западный.
Видимость - горизонтальная дальность видимости в метрах или километрах. При видимости от 1 до 10 км при отсутствии осадков обычно наблюдается дымка, при ухудшении видимости до 1 км и менее - туман. В сухую погоду видимость может ухудшаться дымом, пылью или мглою.
Явления - указаны атмосферные явления, наблюдавшиеся в срок или в последний час перед сроком; фигурными скобками обозначены явления, наблюдавшиеся между сроками (за 1-3 часа до срока); квадратными скобками обозначены град или гололедные отложения с указанием их диаметра в мм.
Облачность - указаны через наклонную черту общая и нижняя облачность в баллах и высота нижней границы облаков в метрах; квадратными скобками обозначены формы облаков: Ci - перистые, Cs - перисто-слоистые, Cc - перисто-кучевые, Ac - высококучевые, As - высокослоистые, Sc - слоисто-кучевые, Ns - слоисто-дождевые, Cu - кучевые, Cb - кучево-дождевые. Подробнее классификацию облаков см. в Атласе облаков (PDF).
T - Температура воздуха - температура, измеренная на высоте 2 м над землей.
Td - Температура точки росы - температура, при понижении до которой содержащийся в воздухе водяной пар достигнет насыщения.
f - Относительная влажность воздуха - влажноcть воздуха, измеренная на высоте 2 м над землей.
Te - Эффективная температура - температура, которую ощущает одетый по сезону человек в тени. Характеристика душности погоды. При расчете учитывается влияние влажности воздуха и скорости ветра на теплоощущения человека.
Tes - Эффективная температура на солнце - температура, которую ощущает человек, с поправкой на солнечный нагрев. Характеристика знойности погоды. Зависит от высоты солнца над горизонтом, облачности и скорости ветра. Ночью, в пасмурную погоду, а также при ветре 12 м/с и более поправка равна нулю.
P - Атмосферное давление - приведенное к уровню моря атмосферное давление.
Po - Атмосферное давление - измеренное на уровне метеостанции атмосферное давление.
Tmin - Минимальная температура - минимум температуры воздуха на высоте 2 м над землей.
Tmax - Максимальная температура - максимум температуры воздуха на высоте 2 м над землей.
R - Количество осадков - Количество выпавших осадков за период времени, мм. При наведении курсора мыши на число - период времени, за который выпало указанное количество осадков.
R24 - Количество осадков - Количество выпавших осадков за 24 часа, мм.
S - Снежный покров - Высота снежного покрова, см. При наведении курсора мыши на число - состояние снежного покрова и степень покрытия местности в баллах.